CZ-6A DEB, 61828

Orbit data source: Space-Track

CZ-6A DEB, 61828 is space debris in LEO originally from a launch on Tue, 06 Aug 2024 UTC launched from the Taiyaun Space Center, China (TSC). Debris objects in space refer to the collection of defunct objects orbiting the Earth. Examples of debris include non-operational satellites, rocket bodies, and fragments generated from explosions, collisions, or faulty payload assembly.

Loading next visibility...
Identifier
61828, 2024-140ACU
Orbit
LEO
Country
Flag of CNCN / PRC
Related business
Manufacturer
SAST
Mission
Spacecraft
Bus & Motor
Unknown
Mass
Unknown
Launch date (UTC)
2024-08-06 (2 years ago)
Launch vehicle
Unknown
Launch site
Taiyaun Space Center, China (TSC)
Object type
Payload
Rocket body
Debris
Shape & HBR
Unknown shape, 0.1 m
Radar Cross Section
Small (<0.1 m²)

Expand to show TLE details & history
Last TLE update: 18 hours ago

TLE from 18 hours ago
0 CZ-6A DEB
1 61828U 24140ACU 26171.22875852  .00001668  00000-0  91735-3 0  9991
2 61828  88.9748 274.3750 0121392 248.3404 110.4816 14.07601088 90928
Epoch: 2026-06-20T05:29Z
TLE epoch observation values (Epoch: 2026-06-20T05:29:24.736Z)
Latitude
0.00004°
Longitude
-76.42445°
Altitude
902.342 km
Speed
7.385 km/s
True Right ascension
18h 17m 30s
True Declination
0° 00' 00"
Sunlit
Object was in full shadow at epoch
Visualization orbit readout
Latitude
Unknown
Longitude
Unknown
Altitude
Unknown
Speed
Unknown
Apparent Right ascension
Unknown
Apparent Declination
Unknown
Sunlit
N/A
Visualization observer readout
Local Sidereal Time
10:19:05
Azimuth
Unknown
Elevation
Unknown
Doppler factor
Unknown
Orbital elements
Apogee altitude
952.481 km
Perigee altitude
776.64 km
Semi-major axis
7,242.698 km
Eccentricity
0.01214
Inclination
88.9748°
RAAN
274.375°
Arg. of periapsis
248.3404°
True anomaly
111.77772°
Mean anomaly
110.4816°
Eccentric anomaly
111.13036°
Mean motion
3.52122 °/min
Orbital period
102.24 mins
BSTAR
0.00091735
Loading maneuver chart data...
Computing Atmospheric mass density...
Loading historical data...
Loading historical data...
Loading historical data...
Loading historical data...
Loading historical data...
Loading historical data...
Loading historical data...

Documentation

Showing up to 5 results
|